Location: Albany
(35.0000°S, 118.0000°E)
Time: 09:11:18
(UTC-05:00)

ERS-1 Rocket - Visible Passes

Search period start: 04 December 2016 00:00
Search period end: 14 December 2016 00:00
Orbit: 753 x 758 km, 98.6° (Epoch: 03 December)

Date Brightness Start Highest point End Pass type
(mag) Time Alt. Az. Time Alt. Az. Time Alt. Az.
04 Dec 3.0 08:31:30 10° S 08:36:38 81° WSW 08:38:15 45° NNW visible
05 Dec 3.5 07:52:21 10° SSE 07:57:08 39° E 07:58:21 34° NE visible
05 Dec 5.2 09:31:50 10° SSW 09:35:35 21° WSW 09:38:22 14° WNW visible
06 Dec 4.6 07:14:25 10° ESE 07:17:25 16° E 07:18:28 15° ENE visible
06 Dec 3.7 08:51:30 10° S 08:56:26 51° WSW 08:58:29 32° NW visible
07 Dec 2.9 08:11:58 10° SSE 08:17:02 64° E 08:18:35 43° NNE visible
07 Dec 5.6 09:52:47 10° SW 09:55:13 14° WSW 09:57:39 10° W visible
08 Dec 4.1 07:33:17 10° SE 07:37:27 25° E 07:38:42 22° ENE visible
08 Dec 4.5 09:11:40 10° S 09:16:10 32° WSW 09:18:42 21° WNW visible
09 Dec 3.0 08:31:47 10° S 08:36:54 81° WSW 08:38:49 39° NNW visible
10 Dec 3.5 07:52:38 10° SSE 07:57:24 39° E 07:58:55 32° NE visible
10 Dec 5.2 09:32:06 10° SSW 09:35:52 21° WSW 09:38:55 13° WNW visible
11 Dec 4.6 07:14:43 10° ESE 07:17:42 15° E 07:19:01 14° ENE visible
11 Dec 3.7 08:51:46 10° S 08:56:43 51° WSW 08:59:01 29° NW visible
12 Dec 3.0 08:12:15 10° SSE 08:17:19 63° ENE 08:19:07 39° NNE visible
12 Dec 5.6 09:53:02 10° SW 09:55:29 14° WSW 09:57:57 10° W visible
13 Dec 4.1 07:33:34 10° SE 07:37:43 25° E 07:39:13 21° ENE visible
13 Dec 4.5 09:11:57 10° S 09:16:27 32° WSW 09:19:13 19° WNW visible
